Simultaneous Nadir Overpasses (SNOs) Predictions

Prediction of SNOs between GOES-16 and NOAA-19 Satellite Orbit:

Table of predicted SNOs for the next 14.0 days since TLE Epoch: 5/22/2021
Index Date Time (GOES-16) GOES-16 Lat,Lon NOAA-19 Lat,Lon Distance(km) Time Diff (sec)
1 05/24/2021 12:03:37 -0.02, -75.19 0.68, -78.16 339.42 80
2 05/25/2021 11:51:53 -0.02, -75.19 0.02, -75.29 12.31 80
3 05/26/2021 11:37:29 -0.03, -75.20 -0.69, -72.44 315.25 80
4 05/29/2021 00:01:04 0.04, -75.19 -0.47, -77.38 250.21 80
5 05/29/2021 23:46:41 0.04, -75.20 0.23, -74.53 77.44 80
6 05/30/2021 23:34:56 0.05, -75.21 0.87, -71.66 405.19 80
7 06/01/2021 12:10:07 -0.05, -75.23 0.94, -79.44 480.55 80
8 06/02/2021 11:58:23 -0.06, -75.24 0.28, -76.57 151.94 80
9 06/03/2021 11:43:59 -0.06, -75.26 -0.44, -73.71 177.02 80
